����������;��������(kVARh)
2018-07-23 00:00;7,95
2018-07-23 00:15;7,8
2018-07-23 00:30;5,35
2018-07-23 00:45;6,7
2018-07-23 01:00;6,95
2018-07-23 01:15;6,5
2018-07-23 01:30;5,4
2018-07-23 01:45;5,45
2018-07-23 02:00;6,25
2018-07-23 02:15;5,6
2018-07-23 02:30;7
2018-07-23 02:45;7,2
2018-07-23 03:00;7,2
2018-07-23 03:15;7,85
2018-07-23 03:30;9,35
2018-07-23 03:45;10,1
2018-07-23 04:00;9,8
2018-07-23 04:15;12,1
2018-07-23 04:30;13,1
2018-07-23 04:45;13,9
2018-07-23 05:00;14,15
2018-07-23 05:15;12,65
2018-07-23 05:30;8,35
2018-07-23 05:45;10,15
2018-07-23 06:00;8,95
2018-07-23 06:15;8,15
2018-07-23 06:30;9,25
2018-07-23 06:45;27,05
2018-07-23 07:00;26,7
2018-07-23 07:15;25,75
2018-07-23 07:30;20,6
2018-07-23 07:45;56,3
2018-07-23 08:00;54,05
2018-07-23 08:15;66,8
2018-07-23 08:30;69,15
2018-07-23 08:45;56,65
2018-07-23 09:00;59,15
2018-07-23 09:15;64,25
2018-07-23 09:30;66
2018-07-23 09:45;69,45
2018-07-23 10:00;77,15
2018-07-23 10:15;79,2
2018-07-23 10:30;85,6
2018-07-23 10:45;102,05
2018-07-23 11:00;83,6
2018-07-23 11:15;92,55
2018-07-23 11:30;87,3
2018-07-23 11:45;100,55
2018-07-23 12:00;92,55
2018-07-23 12:15;103,35
2018-07-23 12:30;91,5
2018-07-23 12:45;101,95
2018-07-23 13:00;92,3
2018-07-23 13:15;102,1
2018-07-23 13:30;92,5
2018-07-23 13:45;103,35
2018-07-23 14:00;92,8
2018-07-23 14:15;101,25
2018-07-23 14:30;93,7
2018-07-23 14:45;104,15
2018-07-23 15:00;104,15
2018-07-23 15:15;81,2
2018-07-23 15:30;88,45
2018-07-23 15:45;92,2
2018-07-23 16:00;91,9
2018-07-23 16:15;69,9
2018-07-23 16:30;77,55
2018-07-23 16:45;65,85
2018-07-23 17:00;72,05
2018-07-23 17:15;69,7
2018-07-23 17:30;68,35
2018-07-23 17:45;55,05
2018-07-23 18:00;57,2
2018-07-23 18:15;38
2018-07-23 18:30;4,1
2018-07-23 18:45;60,85
2018-07-23 19:00;36,45
2018-07-23 19:15;31,5
2018-07-23 19:30;33,35
2018-07-23 19:45;37,6
2018-07-23 20:00;39,55
2018-07-23 20:15;30,55
2018-07-23 20:30;27,3
2018-07-23 20:45;29,15
2018-07-23 21:00;26,7
2018-07-23 21:15;26,8
2018-07-23 21:30;29,45
2018-07-23 21:45;29,35
2018-07-23 22:00;28,3
2018-07-23 22:15;27,8
2018-07-23 22:30;26,1
2018-07-23 22:45;27,35
2018-07-23 23:00;26,4
2018-07-23 23:15;21,9
2018-07-23 23:30;23,55
2018-07-23 23:45;22,3
2018-07-24 00:00;22
2018-07-24 00:15;22,5
2018-07-24 00:30;23,2
2018-07-24 00:45;22,35
2018-07-24 01:00;11,65
2018-07-24 01:15;12,85
2018-07-24 01:30;13,15
2018-07-24 01:45;14,4
2018-07-24 02:00;13,2
2018-07-24 02:15;13,1
2018-07-24 02:30;14,1
2018-07-24 02:45;7,5
2018-07-24 03:00;5,6
2018-07-24 03:15;4,75
2018-07-24 03:30;6,05
2018-07-24 03:45;5,15
2018-07-24 04:00;5,65
2018-07-24 04:15;5,7
2018-07-24 04:30;5,5
2018-07-24 04:45;3,35
2018-07-24 05:00;3,95
2018-07-24 05:15;2,8
2018-07-24 05:30;4,8
2018-07-24 05:45;5,3
2018-07-24 06:00;4,3
2018-07-24 06:15;4,3
2018-07-24 06:30;4,65
2018-07-24 06:45;23,8
2018-07-24 07:00;23,85
2018-07-24 07:15;26,1
2018-07-24 07:30;22,35
2018-07-24 07:45;55,85
2018-07-24 08:00;29,8
2018-07-24 08:15;54,9
2018-07-24 08:30;67,35
2018-07-24 08:45;53,15
2018-07-24 09:00;54,65
2018-07-24 09:15;69
2018-07-24 09:30;74,7
2018-07-24 09:45;76,55
2018-07-24 10:00;77,8
2018-07-24 10:15;78,4
2018-07-24 10:30;81,75
2018-07-24 10:45;83,85
2018-07-24 11:00;87
2018-07-24 11:15;90,95
2018-07-24 11:30;77,7
2018-07-24 11:45;84,3
2018-07-24 12:00;76,75
2018-07-24 12:15;85,75
2018-07-24 12:30;77
2018-07-24 12:45;83,65
2018-07-24 13:00;87,5
2018-07-24 13:15;92
2018-07-24 13:30;91,1
2018-07-24 13:45;91,5
2018-07-24 14:00;95,5
2018-07-24 14:15;106,6
2018-07-24 14:30;89,2
2018-07-24 14:45;93,5
2018-07-24 15:00;83,4
2018-07-24 15:15;82,35
2018-07-24 15:30;72,45
2018-07-24 15:45;82,5
2018-07-24 16:00;84,95
2018-07-24 16:15;88,7
2018-07-24 16:30;70,45
2018-07-24 16:45;72
2018-07-24 17:00;56,5
2018-07-24 17:15;62,65
2018-07-24 17:30;59,55
2018-07-24 17:45;49,85
2018-07-24 18:00;50
2018-07-24 18:15;53,9
2018-07-24 18:30;39,65
2018-07-24 18:45;38
2018-07-24 19:00;45,7
2018-07-24 19:15;37,1
2018-07-24 19:30;35,85
2018-07-24 19:45;33,65
2018-07-24 20:00;31,15
2018-07-24 20:15;28,9
2018-07-24 20:30;31,55
2018-07-24 20:45;27,2
2018-07-24 21:00;30
2018-07-24 21:15;30,4
2018-07-24 21:30;33,3
2018-07-24 21:45;30,65
2018-07-24 22:00;26,5
2018-07-24 22:15;23,75
2018-07-24 22:30;23
2018-07-24 22:45;23,35
2018-07-24 23:00;26,85
2018-07-24 23:15;23,2
2018-07-24 23:30;21,2
2018-07-24 23:45;18,6
2018-07-25 00:00;17,1
2018-07-25 00:15;6,25
2018-07-25 00:30;8,95
2018-07-25 00:45;9,2
2018-07-25 01:00;10,7
2018-07-25 01:15;3,75
2018-07-25 01:30;0,7
2018-07-25 01:45;2,05
2018-07-25 02:00;1,55
2018-07-25 02:15;3,05
2018-07-25 02:30;0,55
2018-07-25 02:45;2,15
2018-07-25 03:00;1,8
2018-07-25 03:15;2,8
2018-07-25 03:30;2
2018-07-25 03:45;2,9
2018-07-25 04:00;3,7
2018-07-25 04:15;2,2
2018-07-25 04:30;2,85
2018-07-25 04:45;2,95
2018-07-25 05:00;3,9
2018-07-25 05:15;3,15
2018-07-25 05:30;11,6
2018-07-25 05:45;14,8
2018-07-25 06:00;12,65
2018-07-25 06:15;14,45
2018-07-25 06:30;14,05
2018-07-25 06:45;14,1
2018-07-25 07:00;27
2018-07-25 07:15;37,9
2018-07-25 07:30;37,2
2018-07-25 07:45;68,3
2018-07-25 08:00;39,1
2018-07-25 08:15;62,05
2018-07-25 08:30;66,7
2018-07-25 08:45;56,4
2018-07-25 09:00;55,5
2018-07-25 09:15;67,05
2018-07-25 09:30;73
2018-07-25 09:45;77,3
2018-07-25 10:00;78,2
2018-07-25 10:15;80,75
2018-07-25 10:30;83,2
2018-07-25 10:45;84,65
2018-07-25 11:00;86,15
2018-07-25 11:15;86,45
2018-07-25 11:30;90
2018-07-25 11:45;91,1
2018-07-25 12:00;93,3
2018-07-25 12:15;93,5
2018-07-25 12:30;90,7
2018-07-25 12:45;92,6
2018-07-25 13:00;90,3
2018-07-25 13:15;90,3
2018-07-25 13:30;88,25
2018-07-25 13:45;87,45
2018-07-25 14:00;90,2
2018-07-25 14:15;89,7
2018-07-25 14:30;90,6
2018-07-25 14:45;90,35
2018-07-25 15:00;88,45
2018-07-25 15:15;81,8
2018-07-25 15:30;82,2
2018-07-25 15:45;81,15
2018-07-25 16:00;77,65
2018-07-25 16:15;74,5
2018-07-25 16:30;66,4
2018-07-25 16:45;62,45
2018-07-25 17:00;61,1
2018-07-25 17:15;57,8
2018-07-25 17:30;57,8
2018-07-25 17:45;41,9
2018-07-25 18:00;42,45
2018-07-25 18:15;39,1
2018-07-25 18:30;35,85
2018-07-25 18:45;35,35
2018-07-25 19:00;38,3
2018-07-25 19:15;31,05
2018-07-25 19:30;23,3
2018-07-25 19:45;22,85
2018-07-25 20:00;19,8
2018-07-25 20:15;20,25
2018-07-25 20:30;20,85
2018-07-25 20:45;19,95
2018-07-25 21:00;10,75
2018-07-25 21:15;10,55
2018-07-25 21:30;11,75
2018-07-25 21:45;13
2018-07-25 22:00;12,75
2018-07-25 22:15;14,2
2018-07-25 22:30;14,55
2018-07-25 22:45;15,25
2018-07-25 23:00;17,75
2018-07-25 23:15;16,5
2018-07-25 23:30;13,3
2018-07-25 23:45;14
2018-07-26 00:00;11,45
2018-07-26 00:15;14,85
2018-07-26 00:30;15,8
2018-07-26 00:45;17,65
2018-07-26 01:00;18,1
2018-07-26 01:15;18,65
2018-07-26 01:30;5,7
2018-07-26 01:45;3,5
2018-07-26 02:00;3,7
2018-07-26 02:15;2,9
2018-07-26 02:30;2,8
2018-07-26 02:45;4,2
2018-07-26 03:00;3,35
2018-07-26 03:15;3,9
2018-07-26 03:30;5,05
2018-07-26 03:45;4,85
2018-07-26 04:00;4,25
2018-07-26 04:15;5
2018-07-26 04:30;4,45
2018-07-26 04:45;4,9
2018-07-26 05:00;4,55
2018-07-26 05:15;4,5
2018-07-26 05:30;4,95
2018-07-26 05:45;4
2018-07-26 06:00;7,85
2018-07-26 06:15;14,55
2018-07-26 06:30;14,3
2018-07-26 06:45;14,65
2018-07-26 07:00;15,7
2018-07-26 07:15;16,5
2018-07-26 07:30;22,3
2018-07-26 07:45;66,8
2018-07-26 08:00;50,3
2018-07-26 08:15;72,25
2018-07-26 08:30;69,35
2018-07-26 08:45;50,6
2018-07-26 09:00;61,1
2018-07-26 09:15;68
2018-07-26 09:30;60,4
2018-07-26 09:45;67,8
2018-07-26 10:00;76,3
2018-07-26 10:15;72,65
2018-07-26 10:30;84,75
2018-07-26 10:45;77,7
2018-07-26 11:00;77,3
2018-07-26 11:15;82,05
2018-07-26 11:30;76,9
2018-07-26 11:45;84,4
2018-07-26 12:00;74,75
2018-07-26 12:15;81,25
2018-07-26 12:30;76,25
2018-07-26 12:45;75
2018-07-26 13:00;71,05
2018-07-26 13:15;70,4
2018-07-26 13:30;67,35
2018-07-26 13:45;70
2018-07-26 14:00;69,6
2018-07-26 14:15;69,7
2018-07-26 14:30;68,6
2018-07-26 14:45;67,75
2018-07-26 15:00;68,75
2018-07-26 15:15;65,75
2018-07-26 15:30;67,55
2018-07-26 15:45;65,5
2018-07-26 16:00;62,3
2018-07-26 16:15;61
2018-07-26 16:30;59,8
2018-07-26 16:45;54,6
2018-07-26 17:00;48,5
2018-07-26 17:15;45,05
2018-07-26 17:30;42,4
2018-07-26 17:45;35,55
2018-07-26 18:00;37
2018-07-26 18:15;37
2018-07-26 18:30;36,9
2018-07-26 18:45;33,65
2018-07-26 19:00;32,65
2018-07-26 19:15;31,75
2018-07-26 19:30;29,6
2018-07-26 19:45;29,05
2018-07-26 20:00;28,3
2018-07-26 20:15;28,05
2018-07-26 20:30;25,3
2018-07-26 20:45;22,6
2018-07-26 21:00;21,75
2018-07-26 21:15;22
2018-07-26 21:30;15,95
2018-07-26 21:45;18,45
2018-07-26 22:00;15,85
2018-07-26 22:15;16,7
2018-07-26 22:30;15,15
2018-07-26 22:45;15,55
2018-07-26 23:00;6,75
2018-07-26 23:15;6,15
2018-07-26 23:30;6,4
2018-07-26 23:45;8,45
2018-07-27 00:00;7,05
2018-07-27 00:15;9,8
2018-07-27 00:30;6,05
2018-07-27 00:45;6,05
2018-07-27 01:00;5,2
2018-07-27 01:15;5,8
2018-07-27 01:30;6,45
2018-07-27 01:45;8,2
2018-07-27 02:00;7,85
2018-07-27 02:15;7,45
2018-07-27 02:30;9,3
2018-07-27 02:45;9,05
2018-07-27 03:00;10,7
2018-07-27 03:15;9,45
2018-07-27 03:30;5,4
2018-07-27 03:45;3,65
2018-07-27 04:00;5,55
2018-07-27 04:15;3,65
2018-07-27 04:30;4,9
2018-07-27 04:45;20,75
2018-07-27 05:00;23,8
2018-07-27 05:15;19,9
2018-07-27 05:30;15,55
2018-07-27 05:45;16,75
2018-07-27 06:00;14,3
2018-07-27 06:15;21,2
2018-07-27 06:30;29,3
2018-07-27 06:45;29,55
2018-07-27 07:00;30,95
2018-07-27 07:15;28,95
2018-07-27 07:30;28,35
2018-07-27 07:45;51,35
2018-07-27 08:00;35
2018-07-27 08:15;36,1
2018-07-27 08:30;41,75
2018-07-27 08:45;44,45
2018-07-27 09:00;48,4
2018-07-27 09:15;48,75
2018-07-27 09:30;50,6
2018-07-27 09:45;51,15
2018-07-27 10:00;52,85
2018-07-27 10:15;65,1
2018-07-27 10:30;71,8
2018-07-27 10:45;72,4
2018-07-27 11:00;71,8
2018-07-27 11:15;74,6
2018-07-27 11:30;72,6
2018-07-27 11:45;71,95
2018-07-27 12:00;75,3
2018-07-27 12:15;74,3
2018-07-27 12:30;75,75
2018-07-27 12:45;75,6
2018-07-27 13:00;73,05
2018-07-27 13:15;71,25
2018-07-27 13:30;70,3
2018-07-27 13:45;69,95
2018-07-27 14:00;71,1
2018-07-27 14:15;72,95
2018-07-27 14:30;71,35
2018-07-27 14:45;74,65
2018-07-27 15:00;74,25
2018-07-27 15:15;70,05
2018-07-27 15:30;68,6
2018-07-27 15:45;63,65
2018-07-27 16:00;66
2018-07-27 16:15;63,05
2018-07-27 16:30;62,65
2018-07-27 16:45;63
2018-07-27 17:00;54,05
2018-07-27 17:15;49,6
2018-07-27 17:30;46,3
2018-07-27 17:45;40,3
2018-07-27 18:00;43,8
2018-07-27 18:15;43
2018-07-27 18:30;40,35
2018-07-27 18:45;34,95
2018-07-27 19:00;45,9
2018-07-27 19:15;37,5
2018-07-27 19:30;35,75
2018-07-27 19:45;36,35
2018-07-27 20:00;34,15
2018-07-27 20:15;32,75
2018-07-27 20:30;32,9
2018-07-27 20:45;32,4
2018-07-27 21:00;30,45
2018-07-27 21:15;31,1
2018-07-27 21:30;30,5
2018-07-27 21:45;33,4
2018-07-27 22:00;32,95
2018-07-27 22:15;34,9
2018-07-27 22:30;30,1
2018-07-27 22:45;27,55
2018-07-27 23:00;19,45
2018-07-27 23:15;15
2018-07-27 23:30;7,95
2018-07-27 23:45;6,95
2018-07-28 00:00;6,85
2018-07-28 00:15;6,5
2018-07-28 00:30;5,8
2018-07-28 00:45;5,3
2018-07-28 01:00;6,15
2018-07-28 01:15;6,3
2018-07-28 01:30;8,1
2018-07-28 01:45;8,8
2018-07-28 02:00;9,9
2018-07-28 02:15;7,85
2018-07-28 02:30;9,45
2018-07-28 02:45;10,1
2018-07-28 03:00;10,05
2018-07-28 03:15;9,55
2018-07-28 03:30;11,65
2018-07-28 03:45;9,85
2018-07-28 04:00;8,65
2018-07-28 04:15;8,55
2018-07-28 04:30;9,75
2018-07-28 04:45;8,85
2018-07-28 05:00;10,4
2018-07-28 05:15;10,4
2018-07-28 05:30;10,5
2018-07-28 05:45;12,95
2018-07-28 06:00;17,75
2018-07-28 06:15;17,45
2018-07-28 06:30;16,4
2018-07-28 06:45;11,6
2018-07-28 07:00;10,8
2018-07-28 07:15;9,85
2018-07-28 07:30;7,55
2018-07-28 07:45;6,45
2018-07-28 08:00;8,7
2018-07-28 08:15;8,15
2018-07-28 08:30;8,4
2018-07-28 08:45;7,25
2018-07-28 09:00;6,75
2018-07-28 09:15;4,45
2018-07-28 09:30;4,35
2018-07-28 09:45;3,2
2018-07-28 10:00;8,25
2018-07-28 10:15;6,8
2018-07-28 10:30;7,4
2018-07-28 10:45;8,2
2018-07-28 11:00;7,55
2018-07-28 11:15;9,4
2018-07-28 11:30;9,05
2018-07-28 11:45;9,8
2018-07-28 12:00;14,65
2018-07-28 12:15;13,45
2018-07-28 12:30;13,8
2018-07-28 12:45;12,65
2018-07-28 13:00;11,45
2018-07-28 13:15;10,95
2018-07-28 13:30;10,3
2018-07-28 13:45;10,05
2018-07-28 14:00;9,5
2018-07-28 14:15;11,35
2018-07-28 14:30;12,05
2018-07-28 14:45;13,2
2018-07-28 15:00;15,9
2018-07-28 15:15;16,05
2018-07-28 15:30;15,85
2018-07-28 15:45;17,1
2018-07-28 16:00;16,35
2018-07-28 16:15;17,05
2018-07-28 16:30;17,95
2018-07-28 16:45;17,25
2018-07-28 17:00;17,25
2018-07-28 17:15;15,55
2018-07-28 17:30;14,8
2018-07-28 17:45;15,7
2018-07-28 18:00;14,25
2018-07-28 18:15;13,8
2018-07-28 18:30;13,8
2018-07-28 18:45;11,4
2018-07-28 19:00;10,25
2018-07-28 19:15;10,2
2018-07-28 19:30;10,95
2018-07-28 19:45;10,85
2018-07-28 20:00;8,9
2018-07-28 20:15;11,15
2018-07-28 20:30;11,6
2018-07-28 20:45;11,85
2018-07-28 21:00;11,3
2018-07-28 21:15;11,55
2018-07-28 21:30;10,4
2018-07-28 21:45;12,25
2018-07-28 22:00;11,75
2018-07-28 22:15;12,5
2018-07-28 22:30;11,9
2018-07-28 22:45;12,65
2018-07-28 23:00;12,3
2018-07-28 23:15;12,85
2018-07-28 23:30;12,95
2018-07-28 23:45;14,8
2018-07-29 00:00;12,7
2018-07-29 00:15;14,4
2018-07-29 00:30;11,6
2018-07-29 00:45;14,7
2018-07-29 01:00;16
2018-07-29 01:15;11,4
2018-07-29 01:30;12,1
2018-07-29 01:45;11,2
2018-07-29 02:00;10,1
2018-07-29 02:15;10,5
2018-07-29 02:30;12,3
2018-07-29 02:45;9,3
2018-07-29 03:00;0,2
2018-07-29 03:15;4,1
2018-07-29 03:30;3,6
2018-07-29 03:45;5
2018-07-29 04:00;4,2
2018-07-29 04:15;4,2
2018-07-29 04:30;5,1
2018-07-29 04:45;5,3
2018-07-29 05:00;4,45
2018-07-29 05:15;5,6
2018-07-29 05:30;4,3
2018-07-29 05:45;5,95
2018-07-29 06:00;4,75
2018-07-29 06:15;4,35
2018-07-29 06:30;5,45
2018-07-29 06:45;5,3
2018-07-29 07:00;6,5
2018-07-29 07:15;4,75
2018-07-29 07:30;4,3
2018-07-29 07:45;3,8
2018-07-29 08:00;8
2018-07-29 08:15;6,8
2018-07-29 08:30;6,5
2018-07-29 08:45;5,7
2018-07-29 09:00;5,1
2018-07-29 09:15;3,8
2018-07-29 09:30;7,3
2018-07-29 09:45;12,2
2018-07-29 10:00;10,8
2018-07-29 10:15;10,6
2018-07-29 10:30;13,7
2018-07-29 10:45;12,05
2018-07-29 11:00;17,4
2018-07-29 11:15;18,8
2018-07-29 11:30;18,55
2018-07-29 11:45;17,55
2018-07-29 12:00;11,95
2018-07-29 12:15;9,85
2018-07-29 12:30;13,95
2018-07-29 12:45;13,95
2018-07-29 13:00;13,8
2018-07-29 13:15;13,5
2018-07-29 13:30;13,05
2018-07-29 13:45;13,15
2018-07-29 14:00;15,05
2018-07-29 14:15;13,5
2018-07-29 14:30;14,95
2018-07-29 14:45;14,6
2018-07-29 15:00;16,3
2018-07-29 15:15;15,6
2018-07-29 15:30;15,35
2018-07-29 15:45;14,75
2018-07-29 16:00;13,2
2018-07-29 16:15;13,7
2018-07-29 16:30;13,3
2018-07-29 16:45;15,7
2018-07-29 17:00;14,55
2018-07-29 17:15;14,35
2018-07-29 17:30;14,2
2018-07-29 17:45;13,3
2018-07-29 18:00;12,95
2018-07-29 18:15;13,1
2018-07-29 18:30;11,75
2018-07-29 18:45;12,25
2018-07-29 19:00;12
2018-07-29 19:15;13,75
2018-07-29 19:30;13,55
2018-07-29 19:45;15,75
2018-07-29 20:00;14,45
2018-07-29 20:15;14,5
2018-07-29 20:30;15,3
2018-07-29 20:45;15,35
2018-07-29 21:00;14,2
2018-07-29 21:15;14,05
2018-07-29 21:30;13,8
2018-07-29 21:45;14,2
2018-07-29 22:00;12,45
2018-07-29 22:15;13,55
2018-07-29 22:30;12,5
2018-07-29 22:45;12,7
2018-07-29 23:00;13,55
2018-07-29 23:15;10,1
2018-07-29 23:30;6,8
2018-07-29 23:45;7,65

